Terminal Aerodrome Forecast
Issued by NWS Miami, FL

Home | Current Version | Previous Version | Text Only | Print | Product List | Glossary On
Versions: 1 2 3 4 5 6 7 8 9 10 11 12 13 14 15 16 17 18 19 20 21 22 23 24 25 26 27 28 29 30 31 32 33 34 35 36 37 38 39 40 41 42 43 44 45 46 47 48 49 50
000
FTUS42 KMFL 011723
TAFAPF
TAF
KAPF 011723Z 0118/0218 09010KT P6SM BKN035
     FM012000 23009KT P6SM VCSH BKN040
     FM020100 05004KT P6SM BKN050
      TEMPO 0210/0213 5SM BR
     FM021400 08008KT P6SM SCT030=

USA.gov is the U.S. government's official web portal to all federal, state and local government web resources and services.